Location: Aurora Center
(43.5271°N, 98.5894°W)
Time: 08:35:07
(UTC-05:00)

Altair - Visible Passes

Search period start: 14 July 2024 00:00
Search period end: 24 July 2024 00:00
Orbit: 1502 x 1681 km, 47.2° (Epoch: 13 July)

Date Brightness Start Highest point End Pass type
(mag) Time Alt. Az. Time Alt. Az. Time Alt. Az.
14 Jul 7.5 01:16:49 10° WNW 01:26:01 77° NNE 01:35:22 10° E visible
14 Jul 7.4 03:21:39 10° WNW 03:30:37 59° SW 03:39:47 10° SE visible
14 Jul 8.5 05:28:04 10° W 05:33:52 18° SW 05:39:46 10° SSW visible
14 Jul 7.6 22:46:14 10° W 22:55:30 77° NNW 23:04:44 10° ENE visible
15 Jul 7.5 00:51:35 10° WNW 01:00:48 75° NNE 01:10:06 10° E visible
15 Jul 7.3 02:56:26 10° WNW 03:05:28 63° SW 03:14:41 10° SE visible
15 Jul 8.4 05:02:32 10° W 05:08:48 21° SW 05:15:11 10° S visible
15 Jul 7.6 22:21:00 10° WSW 22:30:16 79° NNW 22:39:30 10° ENE visible
16 Jul 7.6 00:26:20 10° WNW 00:35:34 74° N 00:44:50 10° E visible
16 Jul 7.3 02:31:14 10° WNW 02:40:18 66° SSW 02:49:33 10° SE visible
16 Jul 8.3 04:37:04 10° W 04:43:44 23° SW 04:50:32 10° S visible
16 Jul 7.6 21:55:45 10° WSW 22:05:02 81° NNW 22:14:16 10° ENE visible
17 Jul 7.6 00:01:07 10° WNW 00:10:19 73° N 00:19:34 10° E visible
17 Jul 7.3 02:06:02 10° WNW 02:15:08 70° SSW 02:24:24 10° SE visible
17 Jul 8.2 04:11:39 10° W 04:18:39 25° SW 04:25:49 10° S visible
17 Jul 7.6 21:30:30 10° WSW 21:39:49 84° NNW 21:49:03 10° ENE visible
17 Jul 7.6 23:35:52 10° WNW 23:45:04 72° N 23:54:18 10° E visible
18 Jul 7.3 01:40:50 10° WNW 01:49:58 74° SSW 01:57:28 17° SE visible
18 Jul 8.1 03:46:17 10° WNW 03:53:35 27° SW 03:55:10 26° SSW visible
18 Jul 7.6 23:10:36 10° W 23:19:49 71° N 23:29:02 10° E visible
19 Jul 7.3 01:15:37 10° WNW 01:24:47 78° SSW 01:30:53 25° SE visible
19 Jul 8.0 03:20:55 10° WNW 03:28:30 30° SW 03:28:44 30° SW visible
19 Jul 7.7 22:45:21 10° W 22:54:34 71° N 23:03:47 10° E visible
20 Jul 7.3 00:50:24 10° WNW 00:59:36 81° SSW 01:05:21 27° ESE visible
20 Jul 8.0 02:55:36 10° WNW 03:03:14 33° SW 03:03:14 33° SW visible
20 Jul 7.7 22:20:05 10° W 22:29:20 71° N 22:38:31 10° E visible
21 Jul 7.3 00:25:12 10° WNW 00:34:25 85° SSW 00:40:14 26° ESE visible
21 Jul 7.9 02:30:18 10° WNW 02:38:09 35° SW 02:38:09 35° SW visible
21 Jul 7.7 21:54:49 10° W 22:04:05 71° N 22:13:16 10° E visible
21 Jul 7.3 23:59:59 10° WNW 00:09:13 88° SSW 00:15:22 25° ESE visible
22 Jul 7.8 02:05:01 10° WNW 02:13:13 38° SW 02:13:18 38° SW visible
22 Jul 7.8 21:29:32 10° W 21:38:50 71° N 21:48:00 10° E visible
22 Jul 7.4 23:34:46 10° WNW 23:44:01 89° NNE 23:50:40 22° ESE visible
23 Jul 7.7 01:39:45 10° WNW 01:48:07 41° SW 01:48:37 41° SW visible
23 Jul 7.4 23:09:32 10° WNW 23:18:48 86° NNE 23:26:05 18° ESE visible
